Location: Home
(42.5358°N, 72.7383°W)
Time: 13:57:29
(UTC-05:00)

Explorer 11/Cluster Stage 4 - Pass Details

Date: 20 December 2025
Orbit: 463 x 1179 km, 28.8° (Epoch: 21 January)

Event Time Altitude Azimuth Distance (km) Brightness Sun altitude
Rises 20:34:25 0° 256° (WSW) 4,033 10.9 -45.7°
Reaches altitude 10° 20:39:31 10° 229° (SW) 2,987 9.8 -46.6°
Enters shadow 20:40:01 11° 225° (SW) 2,923 9.7 -46.7°
